Satellite: MET-3/5
Catalog number: 21655
Epoch time:      10168.86392338
Element set:     839
Inclination:      082.5586 deg
RA of node:       308.1555 deg
Eccentricity:    0.0013293
Arg of perigee:   353.8113 deg
Mean anomaly:     006.2790 deg
Mean motion:   13.17024192 rev/day
Decay rate:        5.1e-07 rev/day^2
Epoch rev:           90576
Checksum:              306

Satellite: MET-2/21
Catalog number: 22782
Epoch time:      10168.72545451
Element set:     805
Inclination:      082.5484 deg
RA of node:       252.0135 deg
Eccentricity:    0.0023518
Arg of perigee:   044.3628 deg
Mean anomaly:     315.9420 deg
Mean motion:   13.83646506 rev/day
Decay rate:        5.3e-07 rev/day^2
Epoch rev:           84815
Checksum:              294

Satellite: OKEAN-4
Catalog number: 23317
Epoch time:      10168.72651907
Element set:     261
Inclination:      082.5404 deg
RA of node:       353.3553 deg
Eccentricity:    0.0020487
Arg of perigee:   238.3882 deg
Mean anomaly:     121.5317 deg
Mean motion:   14.82825736 rev/day
Decay rate:        5.6e-07 rev/day^2
Epoch rev:           84653
Checksum:              301

Satellite: NOAA-14
Catalog number: 23455
Epoch time:      10168.42510017
Element set:      92
Inclination:      098.8784 deg
RA of node:       249.1666 deg
Eccentricity:    0.0008604
Arg of perigee:   232.9485 deg
Mean anomaly:     127.0900 deg
Mean motion:   14.13787640 rev/day
Decay rate:       -3.3e-07 rev/day^2
Epoch rev:           79753
Checksum:              309

Satellite: NOAA-15
Catalog number: 25338
Epoch time:      10168.29440627
Element set:     413
Inclination:      098.6187 deg
RA of node:       155.2168 deg
Eccentricity:    0.0011713
Arg of perigee:   075.7852 deg
Mean anomaly:     284.4646 deg
Mean motion:   14.24833839 rev/day
Decay rate:        9.6e-07 rev/day^2
Epoch rev:           62876
Checksum:              333

Satellite: RESURS
Catalog number: 25394
Epoch time:      10168.62887634
Element set:     530
Inclination:      098.3046 deg
RA of node:       186.6844 deg
Eccentricity:    0.0000795
Arg of perigee:   177.0222 deg
Mean anomaly:     183.0959 deg
Mean motion:   14.24203357 rev/day
Decay rate:        1.3e-07 rev/day^2
Epoch rev:           62041
Checksum:              293

Satellite: FENGYUN1
Catalog number: 25730
Epoch time:      10167.45280558
Element set:    0069
Inclination:      098.7861 deg
RA of node:       132.4274 deg
Eccentricity:    0.0021652
Arg of perigee:   274.6764 deg
Mean anomaly:     085.1938 deg
Mean motion:   14.08191823 rev/day
Decay rate:      -4.37e-06 rev/day^2
Epoch rev:           57158
Checksum:              320

Satellite: OKEAN-0
Catalog number: 25860
Epoch time:      10167.53345325
Element set:    0023
Inclination:      097.8317 deg
RA of node:       140.2529 deg
Eccentricity:    0.0001896
Arg of perigee:   079.3599 deg
Mean anomaly:     280.7815 deg
Mean motion:   14.73644283 rev/day
Decay rate:        1.9e-07 rev/day^2
Epoch rev:           58680
Checksum:              316

Satellite: NOAA-16
Catalog number: 26536
Epoch time:      10168.29716711
Element set:     890
Inclination:      099.1699 deg
RA of node:       185.7684 deg
Eccentricity:    0.0010177
Arg of perigee:   341.9193 deg
Mean anomaly:     018.1586 deg
Mean motion:   14.12564315 rev/day
Decay rate:        9.7e-07 rev/day^2
Epoch rev:           50184
Checksum:              330

Satellite: NOAA-17
Catalog number: 27453
Epoch time:      10168.55824197
Element set:     891
Inclination:      098.4309 deg
RA of node:       218.9878 deg
Eccentricity:    0.0012578
Arg of perigee:   133.4255 deg
Mean anomaly:     226.7989 deg
Mean motion:   14.24165992 rev/day
Decay rate:       -2.7e-07 rev/day^2
Epoch rev:           41475
Checksum:              354

Satellite: NOAA-18
Catalog number: 28654
Epoch time:      10168.58387968
Element set:     375
Inclination:      098.9510 deg
RA of node:       114.8470 deg
Eccentricity:    0.0015309
Arg of perigee:   054.3610 deg
Mean anomaly:     305.8970 deg
Mean motion:   14.11363194 rev/day
Decay rate:      -1.41e-06 rev/day^2
Epoch rev:           26149
Checksum:              317

Satellite: NOAA-19
Catalog number: 33591
Epoch time:      10168.57193180
Element set:     572
Inclination:      098.7895 deg
RA of node:       110.6852 deg
Eccentricity:    0.0013205
Arg of perigee:   291.0145 deg
Mean anomaly:     068.9597 deg
Mean motion:   14.11059529 rev/day
Decay rate:      -1.27e-06 rev/day^2
Epoch rev:            6996
Checksum:              329

/EX
SB KEPS @ AMSAT  $ORB10168.M
Orbital Elements  10168.MISC

HR AMSAT ORBITAL ELEMENTS FOR MANNED AND MISCELLANEOUS SATELLITES
FROM WA5QGD FORT WORTH,TX June 17, 2010
Send Subscribe/unsubscribe to KEPS at http://www.amsat.org/mailman/listinfo/kep
BID: ORB10168.M
TO ALL RADIO AMATEURS BT

Satellite: HUBBLE
Catalog number: 20580
Epoch time:      10167.58213882
Element set:     585
Inclination:      028.4697 deg
RA of node:       243.8094 deg
Eccentricity:    0.0003506
Arg of perigee:   192.4456 deg
Mean anomaly:     167.6113 deg
Mean motion:   15.00986645 rev/day
Decay rate:       3.52e-06 rev/day^2
Epoch rev:           90466
Checksum:              309

